Jackpot

Texas Poker Multi Jackpot System

Kini Telah hadir Jackpot SUPER ROYAL FLUSH

Kini Telah hadir Jackpot 2000 (khusus table VIP keatas).

Ikutilah global jackpot yang tersedia di system kami, dengan system jackpot terbaru dan pertama di indonesia, anda dapat membeli jackpot dengan harga 100 rupiah saja dan menangkan hadiahnya hingga puluhan juta rupiah.

Jackpot bukanlah suatu keharusan untuk dibeli, namun kami memberikan suatu fitur tambahan untuk member tercinta dari www.zienpoker.club.

Terdapat tiga pilihan harga jackpot yang bisa anda beli yaitu :100,500,1000 dan 2000(khusus table VIP Keatas) rupiah.

Hadiah dari Multi jackpot system www.zienpoker.club

  1. full house x 10 harga jackpot yang anda beli.
      (contoh:anda membeli 1000 maka:1000 X10 = 10.000)
  2. four of kind x 250 harga jackpot yang anda beli
      (contoh:anda membeli 1000 maka:1000 X250 = 250.000)
  3. Straight flush x 1200
      (contoh:anda membeli 1000 maka:1000 X1200 = 1.200.000)
  4. Royal flush x 10000 harga jackpot yang anda beli
      (contoh:anda membeli 1000 maka:1000 X10000 = 10.000.000)
  5. SUPER ROYAL FLUSH x 30000 harga jackpot yang anda beli
      (contoh:anda membeli 1000 maka:1000 X30000 = 30.000.000)

Kondisi kartu

  1. full house adalah kondisi kartu dimana kartu anda dan kartu tengah dengan total 7 kartu bisa mendapatkan nilai 5 kartu dengan kombinasi 1 tris(three of kind) dan 1 pair, contoh 3 kartu 10 dan 2 kartu 5
  2. Four of kind adalah kondisi kartu dimana kartu anda dan kartu tengah dengan total 7 kartu bisa mendapatkan nilai 5 kartu dengan kombinasi 4 kartu yang sama jumlah dan 1 kartu apapun juga contoh anda mendapatkan 4 buah kartu angka 3 dan 1 kartu apapun.
  3. Staright flush adalah kondisi kartu dimana kartu anda dan kartu tengah dengan total 7 kartu bisa mendapatkan nilai 5 kartu dengan kombinasi seri / staright dengan kembang yang sama contoh : urutan kartu dari angka 5, 6, 7, 8 , 9 10 dengan kembang yg sama misalnya as hati
  4. Royal flush adalah kondisi kartu dimana kartu anda dan kartu tengah dengan total 7 kartu bisa mendapatkan nilai 5 kartu dengan kombinasi seri / staright dengan kembang yang sama tetapi kartu tersebut haruslah dimulai dari 10. contoh 10, Queen, Jack, King dan aces dengan kembang yang sama
  5. Super Royal flush adalah kondisi kartu dimana Kedua kartu anda digabung dengan 3 kartu pertama meja haruslah royal flush. contoh kartu anda 10,Queen kembang sama dan 3 kartu pertama meja adalah Jack, King dan aces dengan kembang yang sama

Demikian adalah penjelasan dari Multi Jackpot www.zienpoker.club terima kasih dan selamat bermain salam hoki dari kami

Texas Poker Jackpot Winner

TOP SUPER ROYAL FLUSH
No.TanggalNamaPriceWin
124/09 16:34OPPOF9Super Royal flush30,000,000
224/09 14:33ALL19Super Royal flush6,000,000
324/09 05:39MIFTAHUL42Super Royal flush15,000,000
424/09 04:30ARHAM99999Super Royal flush6,000,000
524/09 04:25ACIKKMUSuper Royal flush15,000,000
TOP ROYAL FLUSH
No.TanggalNamaPriceWin
124/09 21:31SAMPAN2525Royal flush5,000,000
224/09 21:24CARIDUUT69Royal flush5,000,000
324/09 21:16ADAMCZRoyal flush5,000,000
424/09 21:05D4G7AONE9Royal flush2,000,000
524/09 21:05JOY58Royal flush10,000,000
TOP STRAIGHT FLUSH
No.TanggalNamaPriceWin
124/09 21:26BUWEL88Straight Flush240,000
224/09 21:24L234M78Straight Flush240,000
324/09 21:23TOPO212Straight Flush600,000
424/09 21:23HONGLALAP1Straight Flush120,000
524/09 21:23JOKERS00Straight Flush1,200,000
LATEST JACKPOT
No.TanggalNamaPriceWin
124/09 21:32SUDAYAFull House10,000
224/09 21:32S0T3KFull House2,000
324/09 21:32BOLENG_1Full House5,000
424/09 21:32KREWAK01Full House2,000
524/09 21:32KACONG191Full House20,000
624/09 21:32GODGAM33Full House10,000
724/09 21:32TAJUDINZZFull House1,000
824/09 21:32KENZIE88Full House1,000
924/09 21:32JONEBB12Full House10,000
1024/09 21:32AGUSJUANDAFull House5,000
1124/09 21:32FULLO998Full House5,000
1224/09 21:32HAALOFull House10,000
1324/09 21:32MRJENGKOLFull House1,000
1424/09 21:32DEVA68Full House5,000
1524/09 21:32UPI333Full House5,000
1624/09 21:32DEWO365Full House5,000
1724/09 21:32Q4M52DFD3OFull House2,000
1824/09 21:32C3NSSSFull House10,000
1924/09 21:32ALFANZUSFull House10,000
2024/09 21:32YOUN1TAFull House1,000
2124/09 21:32LUDUK1212Full House10,000
2224/09 21:32AMIENDFull House1,000
2324/09 21:32SHIWIFull House1,000
2424/09 21:32PARAMAXSFull House5,000
2524/09 21:32YJS493KJF6Full House5,000
2624/09 21:32BROCOOLFull House500
2724/09 21:32BAY6DEUR7SFull House5,000
2824/09 21:32B3J0SK4UFull House2,000
2924/09 21:32SOPIAN3322Full House5,000
3024/09 21:32DEE7662Full House10,000
3124/09 21:32SAM12314Full House2,000
3224/09 21:32WANTUAH99Four Of A Kind50,000
3324/09 21:32ERNABUDIFull House10,000
3424/09 21:31D0N1C5Full House10,000
3524/09 21:31SPRRYLC5Full House20,000
3624/09 21:31SAMPAN2525Royal flush5,000,000
3724/09 21:31AFCC9DCBFull House2,000
3824/09 21:31HABIB123Full House2,000
3924/09 21:31HORSEPOKFour Of A Kind125,000
4024/09 21:31NURAYDAFour Of A Kind50,000
4124/09 21:31UCT16Full House2,000
4224/09 21:31ADAMGR3YFull House2,000
4324/09 21:31BESOT05Full House1,000
4424/09 21:31PADIL2Full House2,000
4524/09 21:31YOIYOI56Full House2,000
4624/09 21:31BDB436FBFull House2,000
4724/09 21:31WBPW0NUKV7Full House2,000
4824/09 21:31WAKONIFour Of A Kind125,000
4924/09 21:31QQNDUMANFull House10,000
5024/09 21:31HUA22Full House5,000

Domino Multi Jackpot System

Ikutilah global jackpot yang tersedia di system kami, dengan system jackpot terbaru dan pertama di indonesia, anda dapat membeli jackpot dengan harga 100 rupiah saja dan menangkan hadiahnya hingga puluhan juta rupiah.

Jackpot bukanlah suatu keharusan untuk dibeli, namun kami memberikan suatu fitur tambahan untuk member tercinta dari www.zienpoker.club.

Terdapat tiga pilihan harga jackpot yang bisa anda beli yaitu :100,500 dan 1000 rupiah.

Hadiah dari Multi jackpot system www.zienpoker.club

  1. Murni Kecil x 50 harga jackpot yang anda beli.
      (contoh:anda membeli 1000 maka:1000 X 50 = 50.000)
  2. Murni Besar x 50 harga jackpot yang anda beli
      (contoh:anda membeli 1000 maka:1000 X 50 = 50.000)
  3. BALAK x 100 harga jackpot yang anda beli
      (contoh:anda membeli 1000 maka:1000 X 100 = 100.000)
  4. ENAM DEWA x 6666 harga jackpot yang anda beli
      (contoh:anda membeli 1000 maka:1000 X 6666 = 6.666.000)

Demikian adalah penjelasan dari Multi Jackpot www.zienpoker.club terima kasih dan selamat bermain salam hoki dari kami

Domino Jackpot Winner

TOP ENAM DEWA
No.TanggalNamaPriceWin
124/09 18:53GOOG369murni enam6,666,000
224/09 18:12PUSING81murni enam6,666,000
324/09 18:10CROT3Xmurni enam666,600
424/09 14:54GESPER66murni enam6,666,000
524/09 14:52RAVINUS23murni enam3,333,000
TOP BALAK
No.TanggalNamaPriceWin
124/09 21:29BOEDHY10balak100,000
224/09 21:28ARDY791balak100,000
324/09 21:26KIRA20balak10,000
424/09 21:23RIYADI18balak50,000
524/09 21:21KARETKABEHbalak50,000
LATEST JACKPOT
No.TanggalNamaPriceWin
124/09 21:31SAEPI565murni besar5,000
224/09 21:31QITALmurni kecil25,000
324/09 21:31SQUAD_6666murni besar50,000
424/09 21:31MAKMUR_999murni besar50,000
524/09 21:30SAUCEBUSUKmurni besar25,000
624/09 21:30UMMAT69murni kecil50,000
724/09 21:30TIYO888murni kecil50,000
824/09 21:30ABDULLAHCCmurni besar25,000
924/09 21:30BI4DABmurni besar5,000
1024/09 21:30MACAN301murni besar50,000
1124/09 21:30C4101CD9murni besar25,000
1224/09 21:29BOEDHY10balak100,000
1324/09 21:29ANDREATITAmurni kecil25,000
1424/09 21:29WESWEYmurni besar50,000
1524/09 21:28MARIMOZOROmurni besar25,000
1624/09 21:28ADDA11murni besar5,000
1724/09 21:28KARSON303murni besar25,000
1824/09 21:28TEMPUYAK90murni kecil25,000
1924/09 21:28ARDY791balak100,000
2024/09 21:28MAXSS008murni besar50,000
2124/09 21:27MIOMERAH11murni kecil5,000
2224/09 21:27KRIWOELmurni besar50,000
2324/09 21:26KULI18murni kecil25,000
2424/09 21:26MARIMOZOROmurni besar25,000
2524/09 21:26KIRA20balak10,000
2624/09 21:26ANDREATITAlucky9925,000
2724/09 21:26BEWOK86murni besar50,000
2824/09 21:25SONYPUTRALlucky9910,000
2924/09 21:25SAKHA999murni kecil5,000
3024/09 21:25DINDA459murni besar50,000
3124/09 21:25KUNCUUP9murni kecil50,000
3224/09 21:25DADO378murni kecil50,000
3324/09 21:24KECEPACUEHmurni kecil50,000
3424/09 21:23DMKPOKER2murni besar5,000
3524/09 21:23RIYADI18balak50,000
3624/09 21:23USD987murni besar25,000
3724/09 21:23MARIMOZOROmurni kecil25,000
3824/09 21:23ADHEN468murni besar50,000
3924/09 21:22CROT3Xmurni kecil25,000
4024/09 21:22BCD5F1A8murni besar50,000
4124/09 21:22M4GNUM2murni besar50,000
4224/09 21:22CHOP999murni kecil50,000
4324/09 21:22TEKNO_IDmurni kecil50,000
4424/09 21:21KARETKABEHbalak50,000
4524/09 21:21DWTTHOKEBOmurni besar25,000
4624/09 21:21KUNCUUP9murni kecil50,000
4724/09 21:21CHELSEAAlucky9925,000
4824/09 21:21LIMPUNG89balak100,000
4924/09 21:21MR_1FALL99murni kecil5,000
5024/09 21:20DULDUL123balak10,000

Ceme Multi Jackpot System

Jackpot dilihat dari gabungan kartu pemain dengan kartu bandar. Bandar harus membeli jackpot sebanyak jumlah player yang sedang duduk. Sebagai contoh bila terdapat 3 pemain duduk bermain, dan bandar memutuskan untuk membeli jackpot Rp 1.000, maka pada periode tersebut bandar akan membeli jackpot sebanyak 3xRp1.000 = Rp3.000.

Jackpot bukanlah suatu keharusan untuk dibeli, namun kami memberikan suatu fitur tambahan untuk member tercinta dari www.zienpoker.club.

Terdapat tiga pilihan harga jackpot yang bisa anda beli yaitu :100,500 dan 1000 rupiah.

Hadiah dari Multi jackpot system www.zienpoker.club

  1. Murni Kecil x 50 harga jackpot yang anda beli.
      (contoh:anda membeli 1000 maka:1000 X 50 = 50.000)
  2. Murni Besar x 50 harga jackpot yang anda beli
      (contoh:anda membeli 1000 maka:1000 X 50 = 50.000)
  3. BALAK x 200 harga jackpot yang anda beli
      (contoh:anda membeli 1000 maka:1000 X 200 = 200.000)
  4. ENAM DEWA x 6666 harga jackpot yang anda beli
      (contoh:anda membeli 1000 maka:1000 X 6666 = 6.666.000)

Demikian adalah penjelasan dari Multi Jackpot www.zienpoker.club terima kasih dan selamat bermain salam hoki dari kami

Ceme Jackpot Winner

TOP ENAM DEWA
No.TanggalNamaPriceWin
124/09 21:32KENZZY69murni enam6,666,000
224/09 21:32PRO1809murni enam6,666,000
324/09 21:30IBI76murni enam6,666,000
424/09 21:25JANAKRAY99murni enam6,666,000
524/09 21:09MBOISBOSmurni enam6,666,000
TOP BALAK
No.TanggalNamaPriceWin
124/09 21:32A27AGNASR10174balak200,000
224/09 21:32TUDUAbalak200,000
324/09 21:32SEMUTROYALbalak200,000
424/09 21:32LEWERNEHbalak100,000
524/09 21:32HIJIHIJI5balak100,000
LATEST JACKPOT
No.TanggalNamaPriceWin
124/09 21:32JUAND412murni besar25,000
224/09 21:32SULAIMAN11murni kecil5,000
324/09 21:32A27AGNASR10174balak200,000
424/09 21:32TUDUAbalak200,000
524/09 21:32CHLOMANK86murni kecil50,000
624/09 21:32KENZZY69murni enam6,666,000
724/09 21:32PRO1809murni enam6,666,000
824/09 21:32SEMUTROYALbalak200,000
924/09 21:32LEWERNEHbalak100,000
1024/09 21:32HIJIHIJI5balak100,000
1124/09 21:32OMPINKbalak20,000
1224/09 21:31AYUBLAEMmurni besar25,000
1324/09 21:31ARBAIN18murni besar50,000
1424/09 21:31SURAHMAN25murni kecil50,000
1524/09 21:31GAXSUP798balak100,000
1624/09 21:31VIOLETONG4murni besar5,000
1724/09 21:31ARXADA597murni besar25,000
1824/09 21:31KUKUBIMA12murni kecil5,000
1924/09 21:31KREMBEL888murni kecil50,000
2024/09 21:31C15Z88768murni kecil5,000
2124/09 21:31BALUZA24murni kecil50,000
2224/09 21:31SURAHMAN25murni kecil50,000
2324/09 21:31BAHONG_04murni kecil5,000
2424/09 21:31GG4OVC62D6murni kecil50,000
2524/09 21:31TVRIRIDOmurni kecil50,000
2624/09 21:30YAMAHA99balak200,000
2724/09 21:30FAIRY123balak200,000
2824/09 21:30GASORKAUbalak200,000
2924/09 21:30KENZZY69murni besar50,000
3024/09 21:30RENOVENmurni kecil50,000
3124/09 21:30LANANG889murni besar25,000
3224/09 21:30BILKIS12murni besar5,000
3324/09 21:30NAXLAH857murni besar25,000
3424/09 21:30ROMILmurni besar50,000
3524/09 21:30R4NDY33murni besar50,000
3624/09 21:30EOZAI7ESLLbalak20,000
3724/09 21:30SURAHMAN25murni besar50,000
3824/09 21:30IBI76murni enam6,666,000
3924/09 21:30REZANOVIANbalak200,000
4024/09 21:30REZANOVIANbalak200,000
4124/09 21:30ZYNGGA01balak20,000
4224/09 21:30LUCKYLUC9murni kecil50,000
4324/09 21:30DADANG999murni besar50,000
4424/09 21:30BUTUA2018murni besar50,000
4524/09 21:29GELOXSmurni besar50,000
4624/09 21:29GELOXSmurni besar50,000
4724/09 21:29ZAENAL1234murni besar25,000
4824/09 21:29BUYUANG55murni besar50,000
4924/09 21:29MASTERAZIZmurni kecil50,000
5024/09 21:29ELIN989murni besar50,000